Back to catalog

SL-8 DEB

AliveLEO
NORAD 24974·DEBRIS·🇷🇺 Russia

Launched Aug 12, 1992 from Plesetsk Cosmodrome

Loading…

Next Passes (next 24 hours)

TLE

FreshSource: Space-Track

Epoch: Sep 14, 2026, 08:57 UTC

1 24974U 92053C   26257.37333080  .00000531  00000-0  19202-3 0  9990
2 24974  74.0517 223.7699 0022228 212.3846 300.8783 14.35819022534402

Track SL-8 DEB in real time with AllMySat

Download on the App Store